Vorticity
-1 -6 -3 6 16 10 9 6 7 8 10 10 10 10 12 12 12 12 15 14 14 16 15 15 14 13 14
6 8 33 13 22 2 7 8 10 13 11 12 12 13 13 13 13 15 15 16 13 12 11 13 13 12 12
24 13 8 7 10 11 12 13 15 15 14 12 13 10 11 14 16 13 12 11 12 11 11 11 11 10 9
13 8 12 12 13 14 18 19 13 10 9 10 14 8 12 12 16 14 14 11 9 10 8 7 7 7 7
8 11 13 15 16 16 15 12 12 8 8 12 14 12 14 12 9 9 8 8 7 7 7 7 8 8 8
9 13 17 17 12 11 12 16 13 6 15 14 7 11 9 7 6 7 7 7 7 7 7 7 7 8 8
15 17 14 11 13 15 15 14 15 17 14 9 7 6 6 6 7 7 7 7 7 8 8 8 8 8 8
17 11 11 11 12 13 12 10 8 6 6 6 6 7 7 7 7 7 7 8 8 8 8 7 8 8 8
11 11 11 11 10 8 7 6 5 6 8 7 7 7 7 7 7 7 8 8 7 8 9 11 18 24 25
10 9 8 7 6 5 6 8 9 8 7 7 7 7 8 8 8 8 9 9 11 17 24 20 11 9 11
9 8 7 7 6 8 9 8 8 7 8 8 9 9 8 8 9 10 12 16 19 15 11 14 14 12 9
11 10 8 8 8 9 9 9 9 9 9 9 8 8 9 9 10 13 17 16 12 15 13 9 8 8 9
11 9 8 9 8 9 9 9 9 9 9 9 8 8 8 10 13 17 17 17 11 8 9 9 10 11 9
8 9 8 8 9 9 8 8 9 10 9 8 7 7 9 13 16 15 11 10 9 10 11 9 8 7 8
10 10 9 8 8 7 6 7 9 10 8 7 7 11 18 19 15 12 10 10 11 9 9 8 8 7 8
10 9 9 7 6 6 6 7 9 8 7 6 14 24 21 18 14 11 11 10 9 9 8 8 8 9 11
10 9 9 7 8 7 6 7 9 8 7 7 23 13 14 12 12 11 9 9 9 8 7 8 9 9 10
Height
3064 3065 3065 3065 3064 3064 3064 3064 3064 3064 3064 3062 3062 3062 3061 3062 3061 3061 3062 3062 3061 3061 3062 3061 3061 3060 3061
3057 3057 3057 3056 3056 3057 3057 3057 3057 3057 3057 3056 3056 3056 3055 3055 3055 3055 3056 3056 3055 3056 3055 3055 3054 3053 3052
3050 3049 3049 3049 3049 3050 3050 3050 3051 3051 3051 3051 3051 3051 3051 3050 3051 3051 3052 3051 3052 3051 3051 3050 3049 3048 3048
3042 3043 3043 3043 3043 3043 3044 3044 3045 3046 3046 3046 3046 3046 3046 3046 3046 3046 3047 3047 3048 3047 3047 3046 3045 3045 3044
3036 3037 3037 3037 3037 3038 3039 3040 3040 3041 3042 3042 3043 3043 3043 3043 3044 3043 3044 3044 3044 3043 3042 3041 3040 3039 3038
3030 3030 3031 3031 3032 3033 3034 3035 3036 3037 3038 3038 3039 3040 3040 3040 3041 3040 3040 3039 3039 3038 3037 3036 3035 3034 3033
3024 3024 3026 3028 3029 3030 3031 3032 3033 3034 3035 3036 3037 3037 3037 3037 3037 3037 3036 3035 3034 3033 3032 3030 3029 3028 3026
3019 3021 3023 3024 3026 3027 3028 3030 3031 3032 3033 3033 3034 3034 3034 3033 3033 3032 3031 3030 3029 3027 3026 3024 3022 3020 3018
3015 3017 3019 3021 3023 3025 3026 3028 3028 3029 3029 3030 3030 3030 3030 3029 3028 3027 3025 3024 3022 3020 3018 3016 3013 3011 3009
3013 3015 3017 3019 3021 3022 3023 3024 3025 3026 3026 3027 3026 3026 3026 3024 3023 3021 3019 3017 3014 3012 3010 3009 3007 3005 3004
3011 3013 3015 3016 3018 3019 3020 3021 3022 3022 3023 3023 3023 3022 3021 3019 3017 3015 3012 3009 3007 3006 3006 3004 3003 3001 3000
3009 3010 3012 3014 3015 3017 3017 3018 3019 3019 3019 3019 3018 3017 3015 3013 3011 3008 3006 3004 3003 3003 3002 3001 3000 2999 2997
3006 3008 3010 3011 3013 3013 3014 3015 3015 3015 3015 3015 3014 3012 3009 3007 3005 3003 3002 3001 3000 3000 3000 2998 2996 2994 2992
3003 3005 3007 3008 3009 3010 3011 3011 3011 3011 3010 3010 3008 3006 3003 3002 3001 3000 2999 2998 2997 2997 2996 2995 2993 2990 2988
3000 3002 3003 3004 3005 3006 3007 3007 3007 3007 3006 3005 3003 3000 2998 2997 2997 2996 2996 2995 2995 2993 2992 2990 2988 2985 2982
2997 2998 3000 3001 3002 3003 3003 3003 3003 3002 3001 3000 2997 2995 2994 2994 2994 2993 2993 2993 2992 2991 2989 2986 2982 2979 2976
2993 2995 2996 2997 2998 2999 2999 2999 2999 2998 2998 2995 2993 2992 2992 2991 2991 2991 2990 2990 2989 2988 2985 2982 2978 2974 2971